Find Starlink 3301

NORAD ID: 50169 Int'l Des: 2021-125 Owner: SPXS Country: US Constellation: starlink operational
LEOCIRCULAR

Live Position

Loading 3D Globe...

About Starlink 3301

Description loading...

Upcoming Passes

Passes for default location (London). Set your location on the main map for personalized predictions.

Altitude History

Loading altitude history...

Two-Line Element Set

1 50169U 21125P 26123.39494837 -.00000327 00000-0 -24675-5 0 9996
2 50169 53.2194 3.5373 0001431 87.9951 272.1205 15.08840743244869
Epoch: May 3, 2026 • Age: 10 hours

Current Status

Altitude 539.7 km
Velocity 7.59 km/s
Sub-Earth Point 9.81°N, 138.63°W
Launch Date Dec 18, 2021
Age 4.3 years
Type internet

Technical Details

Classification Payload
Mass 290.00 kg
Dry Mass 270.00 kg
Total Mass 290.00 kg
Length 0.20 m
Diameter 2.80 m
Span 9.00 m
Shape Box + pan
Manufacturer SPXS
Bus Type Starlink
Phase Status In Orbit
Owner/State SPXS/US

Most Searched